| time (UTC) | temp F | wind direction | speed knots | gust knots | rain 1hr in | rain 24hr in | rain mn in | humidity % | barometer mb |
| 20260902201924 | 102 | 257 | 3.5 | 8.7 | 0.00 | 0.00 | 0.00 | 28 | 1011.5 |
| 20260902201023 | 103 | 290 | 3.5 | 8.7 | 0.00 | 0.00 | 0.00 | 27 | 1011.6 |
| 20260902200123 | 102 | 218 | 4.3 | 8.7 | 0.00 | 0.00 | 0.00 | 28 | 1011.9 |
| 20260902195223 | 102 | 178 | 4.3 | 10.4 | 0.00 | 0.00 | 0.00 | 28 | 1012.0 |
| 20260902194323 | 103 | 215 | 2.6 | 8.7 | 0.00 | 0.00 | 0.00 | 27 | 1012.1 |
| 20260902193423 | 101 | 151 | 2.6 | 8.7 | 0.00 | 0.00 | 0.00 | 30 | 1012.2 |
| 20260902192523 | 101 | 169 | 3.5 | 8.7 | 0.00 | 0.00 | 0.00 | 30 | 1012.4 |
| 20260902191623 | 102 | 243 | 4.3 | 8.7 | 0.00 | 0.00 | 0.00 | 29 | 1012.5 |
| 20260902185823 | 99 | 159 | 4.3 | 9.6 | 0.00 | 0.00 | 0.00 | 32 | 1012.8 |
| 20260902184923 | 100 | 194 | 4.3 | 9.6 | 0.00 | 0.00 | 0.00 | 30 | 1013.0 |
| 20260902184023 | 100 | 175 | 3.5 | 12.2 | 0.00 | 0.00 | 0.00 | 30 | 1013.1 |
| 20260902183123 | 100 | 206 | 5.2 | 8.7 | 0.00 | 0.00 | 0.00 | 30 | 1013.2 |
| 20260902182223 | 99 | 176 | 5.2 | 14.8 | 0.00 | 0.00 | 0.00 | 31 | 1013.2 |
| 20260902181323 | 99 | 197 | 4.3 | 9.6 | 0.00 | 0.00 | 0.00 | 30 | 1013.4 |
| 20260902180423 | 98 | 184 | 4.3 | 10.4 | 0.00 | 0.00 | 0.00 | 32 | 1013.4 |
| 20260902174623 | 98 | 188 | 3.5 | 9.6 | 0.00 | 0.00 | 0.00 | 34 | 1013.5 |
| 20260902173723 | 98 | 173 | 3.5 | 11.3 | 0.00 | 0.00 | 0.00 | 31 | 1013.6 |
| 20260902172823 | 98 | 186 | 2.6 | 13.0 | 0.00 | 0.00 | 0.00 | 31 | 1013.6 |
| 20260902171923 | 96 | 189 | 3.5 | 7.0 | 0.00 | 0.00 | 0.00 | 37 | 1013.6 |
| 20260902171023 | 96 | 205 | 2.6 | 7.8 | 0.00 | 0.00 | 0.00 | 38 | 1013.6 |
| 20260902170123 | 96 | 182 | 1.7 | 7.0 | 0.00 | 0.00 | 0.00 | 39 | 1013.5 |
| 20260902165223 | 95 | 182 | 2.6 | 6.1 | 0.00 | 0.00 | 0.00 | 41 | 1013.6 |
| 20260902163423 | 93 | 194 | 2.6 | 6.1 | 0.00 | 0.00 | 0.00 | 46 | 1013.7 |
| 20260902162523 | 93 | 174 | 1.7 | 7.8 | 0.00 | 0.00 | 0.00 | 45 | 1013.7 |
| 20260902160723 | 92 | 173 | 2.6 | 7.0 | 0.00 | 0.00 | 0.00 | 49 | 1013.7 |
| 20260902155823 | 91 | 155 | 3.5 | 7.8 | 0.00 | 0.00 | 0.00 | 49 | 1013.6 |
| 20260902154923 | 91 | 154 | 2.6 | 7.8 | 0.00 | 0.00 | 0.00 | 51 | 1013.4 |
| 20260902154023 | 90 | 160 | 2.6 | 5.2 | 0.00 | 0.00 | 0.00 | 52 | 1013.5 |
| 20260902153123 | 90 | 161 | 2.6 | 7.0 | 0.00 | 0.00 | 0.00 | 53 | 1013.5 |
| 20260902152223 | 89 | 175 | 1.7 | 5.2 | 0.00 | 0.00 | 0.00 | 55 | 1013.4 |
| 20260902151323 | 88 | 122 | 2.6 | 7.0 | 0.00 | 0.00 | 0.00 | 55 | 1013.4 |
| 20260902150423 | 88 | 128 | 1.7 | 7.0 | 0.00 | 0.00 | 0.00 | 55 | 1013.3 |
| 20260902145523 | 87 | 127 | 1.7 | 4.3 | 0.00 | 0.00 | 0.00 | 56 | 1013.3 |
| 20260902144623 | 87 | 157 | 0.9 | 6.1 | 0.00 | 0.00 | 0.00 | 57 | 1013.3 |
| 20260902143723 | 86 | 154 | 1.7 | 2.6 | 0.00 | 0.00 | 0.00 | 58 | 1013.3 |
| 20260902142823 | 86 | 149 | 0.9 | 5.2 | 0.00 | 0.00 | 0.00 | 59 | 1013.3 |
| 20260902141923 | 86 | 115 | 0.9 | 5.2 | 0.00 | 0.00 | 0.00 | 59 | 1013.3 |
| 20260902140123 | 85 | 110 | 0.0 | 2.6 | 0.00 | 0.00 | 0.00 | 61 | 1013.0 |
| 20260902135223 | 84 | 111 | 0.0 | 2.6 | 0.00 | 0.00 | 0.00 | 62 | 1012.8 |
| 20260902134323 | 84 | 111 | 0.0 | 1.7 | 0.00 | 0.00 | 0.00 | 62 | 1012.7 |
| 20260902133423 | 83 | 0 | 0.0 | 0.0 | 0.00 | 0.00 | 0.00 | 63 | 1012.6 |
| 20260902132523 | 83 | 108 | 0.9 | 2.6 | 0.00 | 0.00 | 0.00 | 63 | 1012.5 |
| 20260902131623 | 83 | 109 | 0.9 | 2.6 | 0.00 | 0.00 | 0.00 | 63 | 1012.4 |
| 20260902130723 | 83 | 110 | 0.9 | 2.6 | 0.00 | 0.00 | 0.00 | 63 | 1012.4 |
| 20260902124923 | 84 | 110 | 0.9 | 3.5 | 0.00 | 0.00 | 0.00 | 62 | 1012.2 |
| 20260902124022 | 84 | 104 | 1.7 | 3.5 | 0.00 | 0.00 | 0.00 | 61 | 1012.1 |
| 20260902123122 | 84 | 96 | 0.9 | 2.6 | 0.00 | 0.00 | 0.00 | 61 | 1011.9 |
| 20260902122223 | 84 | 95 | 0.9 | 2.6 | 0.00 | 0.00 | 0.00 | 61 | 1011.9 |
| 20260902121322 | 84 | 94 | 1.7 | 3.5 | 0.00 | 0.00 | 0.00 | 60 | 1011.9 |
| 20260902120422 | 84 | 93 | 1.7 | 3.5 | 0.00 | 0.00 | 0.00 | 60 | 1011.8 |
| 20260902114623 | 85 | 113 | 0.9 | 3.5 | 0.00 | 0.00 | 0.00 | 59 | 1011.8 |
| 20260902113722 | 85 | 108 | 0.9 | 2.6 | 0.00 | 0.00 | 0.00 | 59 | 1011.8 |
| 20260902111923 | 85 | 102 | 1.7 | 3.5 | 0.00 | 0.00 | 0.00 | 58 | 1011.7 |
| 20260902110122 | 85 | 98 | 0.9 | 3.5 | 0.00 | 0.00 | 0.00 | 58 | 1011.6 |
| 20260902104322 | 86 | 108 | 0.9 | 2.6 | 0.00 | 0.00 | 0.00 | 58 | 1011.7 |
| 20260902103422 | 86 | 111 | 0.9 | 2.6 | 0.00 | 0.00 | 0.00 | 59 | 1011.6 |
| 20260902102522 | 86 | 112 | 0.0 | 2.6 | 0.00 | 0.00 | 0.00 | 58 | 1011.7 |
| 20260902101622 | 86 | 112 | 0.0 | 0.9 | 0.00 | 0.00 | 0.00 | 58 | 1011.8 |
| 20260902100722 | 86 | 113 | 0.9 | 2.6 | 0.00 | 0.00 | 0.00 | 57 | 1011.7 |
| 20260902095822 | 86 | 118 | 0.0 | 2.6 | 0.00 | 0.00 | 0.00 | 58 | 1011.6 |
| 20260902094922 | 86 | 0 | 0.0 | 0.0 | 0.00 | 0.00 | 0.00 | 57 | 1011.6 |
| 20260902094022 | 86 | 0 | 0.0 | 0.0 | 0.00 | 0.00 | 0.00 | 57 | 1011.6 |
| 20260902093122 | 86 | 0 | 0.0 | 0.0 | 0.00 | 0.00 | 0.00 | 57 | 1011.6 |
| 20260902092222 | 86 | 0 | 0.0 | 0.0 | 0.00 | 0.00 | 0.00 | 56 | 1011.5 |
| 20260902091322 | 86 | 175 | 0.0 | 0.9 | 0.00 | 0.00 | 0.00 | 56 | 1011.7 |
| 20260902090422 | 87 | 176 | 0.0 | 0.9 | 0.00 | 0.00 | 0.00 | 54 | 1011.7 |
| 20260902085522 | 87 | 0 | 0.0 | 0.0 | 0.00 | 0.00 | 0.00 | 53 | 1011.6 |
| 20260902084622 | 88 | 176 | 0.0 | 1.7 | 0.00 | 0.00 | 0.00 | 52 | 1011.8 |
| 20260902083722 | 88 | 176 | 0.0 | 0.9 | 0.00 | 0.00 | 0.00 | 50 | 1011.7 |
| 20260902082822 | 88 | 176 | 0.0 | 0.9 | 0.00 | 0.00 | 0.00 | 50 | 1011.6 |
| 20260902081922 | 88 | 0 | 0.0 | 0.0 | 0.00 | 0.00 | 0.00 | 49 | 1011.7 |
| 20260902081022 | 89 | 176 | 0.0 | 0.9 | 0.00 | 0.00 | 0.00 | 48 | 1011.7 |
| 20260902075222 | 89 | 0 | 0.0 | 0.0 | 0.00 | 0.00 | 0.00 | 48 | 1011.6 |
| 20260902074322 | 89 | 292 | 0.9 | 1.7 | 0.00 | 0.00 | 0.00 | 48 | 1011.6 |
| 20260902072522 | 90 | 267 | 0.9 | 3.5 | 0.00 | 0.00 | 0.00 | 47 | 1011.4 |
| 20260902071622 | 91 | 177 | 0.9 | 3.5 | 0.00 | 0.00 | 0.00 | 46 | 1011.4 |
| 20260902070722 | 91 | 148 | 0.9 | 5.2 | 0.00 | 0.00 | 0.00 | 45 | 1011.2 |
| 20260902065822 | 91 | 142 | 0.9 | 3.5 | 0.00 | 0.00 | 0.00 | 45 | 1011.2 |
| 20260902064922 | 91 | 162 | 0.9 | 4.3 | 0.00 | 0.00 | 0.00 | 45 | 1011.1 |
| 20260902064022 | 91 | 164 | 0.0 | 3.5 | 0.00 | 0.00 | 0.00 | 45 | 1011.1 |
| 20260902062222 | 91 | 166 | 0.9 | 4.3 | 0.00 | 0.00 | 0.00 | 45 | 1011.1 |
| 20260902061322 | 91 | 166 | 0.9 | 3.5 | 0.00 | 0.00 | 0.00 | 45 | 1011.1 |
| 20260902055522 | 92 | 168 | 0.9 | 4.3 | 0.00 | 0.00 | 0.00 | 44 | 1011.2 |
| 20260902052822 | 92 | 174 | 1.7 | 5.2 | 0.00 | 0.00 | 0.00 | 42 | 1011.4 |
| 20260902051922 | 93 | 188 | 0.9 | 5.2 | 0.00 | 0.00 | 0.00 | 41 | 1011.4 |
| 20260902050122 | 91 | 0 | 0.0 | 0.0 | 0.00 | 0.00 | 0.00 | 41 | 1011.1 |
| 20260902045222 | 92 | 0 | 0.0 | 0.0 | 0.00 | 0.00 | 0.00 | 41 | 1011.1 |
| 20260902044322 | 91 | 0 | 0.0 | 0.0 | 0.00 | 0.00 | 0.00 | 42 | 1011.0 |
| 20260902043422 | 91 | 0 | 0.0 | 0.0 | 0.00 | 0.00 | 0.00 | 41 | 1010.9 |
| 20260902042522 | 91 | 0 | 0.0 | 0.0 | 0.00 | 0.00 | 0.00 | 41 | 1010.8 |
| 20260902041622 | 92 | 0 | 0.0 | 0.0 | 0.00 | 0.00 | 0.00 | 40 | 1010.8 |
| 20260902040722 | 92 | 0 | 0.0 | 0.0 | 0.00 | 0.00 | 0.00 | 40 | 1010.8 |
| 20260902035822 | 92 | 0 | 0.0 | 0.0 | 0.00 | 0.00 | 0.00 | 40 | 1010.7 |
| 20260902034922 | 92 | 0 | 0.0 | 0.0 | 0.00 | 0.00 | 0.00 | 39 | 1010.6 |
| 20260902034022 | 93 | 0 | 0.0 | 0.0 | 0.00 | 0.00 | 0.00 | 39 | 1010.4 |
| 20260902033122 | 94 | 0 | 0.0 | 0.0 | 0.00 | 0.00 | 0.00 | 38 | 1010.3 |
| 20260902032222 | 93 | 0 | 0.0 | 0.0 | 0.00 | 0.00 | 0.00 | 38 | 1010.1 |
| 20260902031322 | 94 | 0 | 0.0 | 0.0 | 0.00 | 0.00 | 0.00 | 38 | 1009.9 |
| 20260902030422 | 94 | 0 | 0.0 | 0.0 | 0.00 | 0.00 | 0.00 | 38 | 1009.7 |
| 20260902025522 | 94 | 0 | 0.0 | 0.0 | 0.00 | 0.00 | 0.00 | 37 | 1009.6 |
| 20260902024622 | 94 | 178 | 0.0 | 1.7 | 0.00 | 0.00 | 0.00 | 38 | 1009.5 |
| 20260902021922 | 95 | 178 | 0.9 | 1.7 | 0.00 | 0.00 | 0.00 | 37 | 1009.4 |
| 20260902021022 | 95 | 178 | 0.0 | 3.5 | 0.00 | 0.00 | 0.00 | 36 | 1009.4 |
| 20260902020122 | 95 | 178 | 0.0 | 1.7 | 0.00 | 0.00 | 0.00 | 36 | 1009.3 |
| 20260902015222 | 96 | 178 | 0.9 | 3.5 | 0.00 | 0.00 | 0.00 | 36 | 1009.1 |
| 20260902014322 | 96 | 178 | 0.0 | 3.5 | 0.00 | 0.00 | 0.00 | 36 | 1009.1 |
| 20260902013422 | 96 | 178 | 0.0 | 1.7 | 0.00 | 0.00 | 0.00 | 36 | 1009.1 |
| 20260902012522 | 96 | 178 | 1.7 | 3.5 | 0.00 | 0.00 | 0.00 | 35 | 1009.1 |
| 20260902010722 | 97 | 157 | 1.7 | 4.3 | 0.00 | 0.00 | 0.00 | 34 | 1009.3 |
| 20260902005822 | 98 | 31 | 0.9 | 5.2 | 0.00 | 0.00 | 0.00 | 35 | 1009.5 |
| 20260902004922 | 98 | 287 | 0.9 | 3.5 | 0.00 | 0.00 | 0.00 | 34 | 1009.4 |
| 20260902004022 | 98 | 214 | 1.7 | 6.1 | 0.00 | 0.00 | 0.00 | 34 | 1009.6 |
| 20260902003121 | 99 | 239 | 2.6 | 4.3 | 0.00 | 0.00 | 0.00 | 34 | 1009.6 |
| 20260902002222 | 98 | 201 | 2.6 | 6.1 | 0.00 | 0.00 | 0.00 | 34 | 1009.8 |
| 20260902000422 | 99 | 227 | 2.6 | 7.8 | 0.00 | 0.00 | 0.00 | 34 | 1009.8 |
| 20260901235522 | 100 | 232 | 1.7 | 6.1 | 0.00 | 0.00 | 0.00 | 35 | 1009.9 |
| 20260901234622 | 100 | 159 | 1.7 | 6.1 | 0.00 | 0.00 | 0.00 | 35 | 1009.8 |
| 20260901232821 | 99 | 196 | 1.7 | 8.7 | 0.00 | 0.00 | 0.00 | 35 | 1010.1 |
| 20260901231921 | 99 | 190 | 2.6 | 7.0 | 0.00 | 0.00 | 0.00 | 36 | 1010.1 |
| 20260901231021 | 99 | 178 | 3.5 | 8.7 | 0.00 | 0.00 | 0.00 | 35 | 1010.2 |
| 20260901224322 | 100 | 154 | 3.5 | 7.0 | 0.00 | 0.00 | 0.00 | 36 | 1010.5 |
| 20260901223421 | 100 | 169 | 4.3 | 11.3 | 0.00 | 0.00 | 0.00 | 34 | 1010.4 |
| 20260901222521 | 100 | 156 | 3.5 | 8.7 | 0.00 | 0.00 | 0.00 | 36 | 1010.5 |
| 20260901221621 | 100 | 223 | 3.5 | 10.4 | 0.00 | 0.00 | 0.00 | 36 | 1010.7 |
| 20260901215821 | 101 | 271 | 2.6 | 7.8 | 0.00 | 0.00 | 0.00 | 36 | 1010.9 |
| 20260901214921 | 100 | 247 | 1.7 | 5.2 | 0.00 | 0.00 | 0.00 | 38 | 1011.0 |
| 20260901214021 | 101 | 191 | 1.7 | 6.1 | 0.00 | 0.00 | 0.00 | 38 | 1011.1 |
| 20260901212221 | 99 | 214 | 2.6 | 7.0 | 0.00 | 0.00 | 0.00 | 36 | 1011.5 |
| 20260901210421 | 99 | 210 | 2.6 | 7.8 | 0.00 | 0.00 | 0.00 | 38 | 1011.9 |
| 20260901205521 | 98 | 205 | 0.9 | 6.1 | 0.00 | 0.00 | 0.00 | 39 | 1012.0 |
| 20260901204621 | 97 | 238 | 1.7 | 5.2 | 0.00 | 0.00 | 0.00 | 41 | 1012.1 |
| 20260901203721 | 97 | 164 | 2.6 | 8.7 | 0.00 | 0.00 | 0.00 | 41 | 1012.2 |
| 20260901202821 | 98 | 175 | 3.5 | 8.7 | 0.00 | 0.00 | 0.00 | 40 | 1012.3 |